STARLINK-1234, 45190

Orbit data source: Space-Track

STARLINK-1234, 45190 is a payload satellite owned by SpaceX/Seattle (US) in LEO that was launched on Mon, 17 Feb 2020 UTC via an FALCON 9 launch vehicle from the Air Force Eastern Test Range (AFETR). Payload-class satellites include a variety of spacecraft equipped with specific instruments for various scientific and technological missions. These include communications satellites like Starlink; space stations such as the ISS; scientific satellites like the Hubble; Earth observation satellites from companies like Planet Labs, Umbra, and HawkEye 360; GPS; miniature CubeSats for education and research; and military/defense satellites.

Loading next visibility...
Identifier
45190, 2020-012N
Orbit
LEO
Country
Flag of USUS
Related business
Manufacturer
SpaceX/Seattle
Mission
Partially operational Commercial Communications
Bus & Motor
STARLINK, Unknown motor
Mass
260 kg wet, ~248 kg dry
Launch date (UTC)
2020-02-17 (6 years ago)
Launch vehicle
FALCON 9
Launch site
Air Force Eastern Test Range (AFETR)
Object type
Payload
Rocket body
Debris
Shape & HBR
Box + 1 Pan, 10.1 m
Radar Cross Section
13.562 m², Large (>1 m²)

Expand to show TLE details & history
Last TLE update: 9 hours ago

TLE from 9 hours ago
0 STARLINK-1234
1 45190U 20012N   26073.89485586  .00122568  00000-0  12743-2 0  9998
2 45190  53.0426 299.8299 0004319 311.5498  48.5145 15.63729175336697
Epoch: 2026-03-14T21:28Z
TLE epoch observation values (Epoch: 2026-03-14T21:28:35.546Z)
Latitude
-0.00001°
Longitude
165.1723°
Altitude
375.864 km
Speed
7.687 km/s
True Right ascension
19h 59m 19s
True Declination
0° 00' 00"
Sunlit
Object was in daylight at epoch
Visualization orbit readout
Latitude
Unknown
Longitude
Unknown
Altitude
Unknown
Speed
Unknown
Apparent Right ascension
Unknown
Apparent Declination
Unknown
Sunlit
N/A
Visualization observer readout
Local Sidereal Time
10:31:26
Azimuth
Unknown
Elevation
Unknown
Doppler factor
Unknown
Orbital elements
Apogee altitude
380.093 km
Perigee altitude
374.258 km
Semi-major axis
6,755.312 km
Eccentricity
0.00043
Inclination
53.0426°
RAAN
299.8299°
Arg. of periapsis
311.5498°
True anomaly
48.55159°
Mean anomaly
48.5145°
Eccentric anomaly
48.53304°
Mean motion
3.90908 °/min
Orbital period
92.09 mins
BSTAR
0.0012743
Loading maneuver chart data...
Computing Atmospheric mass density...
Loading historical data...
Loading historical data...
Loading historical data...
Loading historical data...
Loading historical data...
Loading historical data...
Loading historical data...

Documentation

Showing up to 5 results
|